Weather History for Taunton, MA

Change the Weather History Date:

Friday, November 30, 2012

  Actual Average Record
Temperature  
Mean Temperature 32 °F -  
Max Temperature 39 °F 45 °F 66 °F (2001)
Min Temperature 26 °F 28 °F 13 °F (1967)
Degree Days  
Heating Degree Days 32    
Moisture  
Dew Point 18 °F    
Average Humidity 56    
Maximum Humidity 84    
Minimum Humidity 28    
Precipitation  
Precipitation 0.00 in - - ()
Sea Level Pressure  
Sea Level Pressure 30.43 in    
Wind  
Wind Speed 5 mph (North)    
Max Wind Speed 9 mph    
Max Gust Speed -    
Visibility 10 miles    
Events      
Averages and records for this station are not official NWS values.
T = Trace of Precipitation, MM = Missing Value Source: NWS Daily Summary

Daily Weather History Graph

Daily Weather History Graph

Search for Another Location

Airport:

Trip Planner

Search our weather history database for the weather conditions in past years. The results will help you decide how hot, cold, wet, or windy it might be!

Date:

Astronomy

Nov. 30, 2012 Rise Set
Actual Time 6:51 AM EST 4:14 PM EST
Civil Twilight 6:20 AM EST 4:45 PM EST
Nautical Twilight 5:45 AM EST 5:19 PM EST
Astronomical Twilight 5:12 AM EST 5:53 PM EST
Moon 6:06 PM EST (11/30) 8:21 AM EST (11/30)
Length of Visible Light 10h 24m
Length of Day
9h 22m
Waning Gibbous, 96% of the Moon is Illuminated
Nov 30
Waning Gibbous
Dec 6
Last Quarter
Dec 13
New
Dec 20
First Quarter
Dec 28
Full

Hourly Weather History & Observations

Time (EST) Temp. Windchill Dew Point Humidity Pressure Visibility Wind Dir Wind Speed Gust Speed Precip Events Conditions
12:52 AM 39.0 °F 32.8 °F 24.1 °F 55% 30.25 in 10.0 mi WSW 9.2 mph - N/A   Mostly Cloudy
1:52 AM 39.0 °F 32.8 °F 23.0 °F 53% 30.26 in 10.0 mi WSW 9.2 mph - N/A   Scattered Clouds
2:52 AM 37.9 °F 32.7 °F 23.0 °F 55% 30.26 in 10.0 mi Variable 6.9 mph - N/A   Clear
3:52 AM 28.9 °F 25.2 °F 21.9 °F 75% 30.28 in 10.0 mi North 3.5 mph - N/A   Clear
4:52 AM 28.0 °F - 23.0 °F 81% 30.32 in 10.0 mi Calm Calm - N/A   Clear
5:52 AM 26.1 °F - 21.9 °F 84% 30.35 in 9.0 mi Calm Calm - N/A   Clear
6:52 AM 28.0 °F - 23.0 °F 81% 30.38 in 10.0 mi Calm Calm - N/A   Clear
7:52 AM 30.9 °F 27.5 °F 25.0 °F 79% 30.41 in 10.0 mi North 3.5 mph - N/A   Mostly Cloudy
8:52 AM 35.1 °F 28.6 °F 19.0 °F 52% 30.44 in 10.0 mi North 8.1 mph - N/A   Mostly Cloudy
9:52 AM 36.0 °F 29.0 °F 12.9 °F 39% 30.46 in 10.0 mi North 9.2 mph - N/A   Clear
10:52 AM 36.0 °F 29.0 °F 8.1 °F 31% 30.45 in 10.0 mi North 9.2 mph - N/A   Clear
11:52 AM 37.9 °F 32.7 °F 7.0 °F 28% 30.44 in 10.0 mi Variable 6.9 mph - N/A   Clear
12:52 PM 39.0 °F 35.7 °F 10.0 °F 30% 30.44 in 10.0 mi Variable 4.6 mph - N/A   Clear
1:52 PM 37.9 °F 32.1 °F 14.0 °F 38% 30.44 in 10.0 mi NNE 8.1 mph - N/A   Clear
2:52 PM 36.0 °F 31.1 °F 15.1 °F 43% 30.45 in 10.0 mi NNE 5.8 mph - N/A   Scattered Clouds
3:52 PM 34.0 °F 31.0 °F 18.0 °F 52% 30.48 in 10.0 mi NNE 3.5 mph - N/A   Mostly Cloudy
4:52 PM 33.1 °F 28.7 °F 19.0 °F 56% 30.50 in 10.0 mi Variable 4.6 mph - N/A   Overcast
5:52 PM 33.1 °F 28.7 °F 19.0 °F 56% 30.50 in 10.0 mi Variable 4.6 mph - N/A   Overcast
6:52 PM 32.0 °F - 19.9 °F 61% 30.52 in 10.0 mi Calm Calm - N/A   Overcast
7:52 PM 32.0 °F - 19.0 °F 59% 30.54 in 10.0 mi Calm Calm - N/A   Overcast
8:52 PM 32.0 °F 28.7 °F 19.0 °F 59% 30.54 in 10.0 mi NNE 3.5 mph - N/A   Overcast
9:52 PM 32.0 °F 28.7 °F 19.0 °F 59% 30.54 in 10.0 mi NNE 3.5 mph - N/A   Overcast
10:52 PM 32.0 °F - 19.9 °F 61% 30.54 in 10.0 mi Calm Calm - N/A   Overcast
11:52 PM 32.0 °F - 19.9 °F 61% 30.54 in 10.0 mi Calm Calm - N/A   Overcast